This is the latest recevied weather packets stored in our database for station/object DB0MOD. If no packets are shown the sender has not sent any weather packets the latest 10 day(s).
| Time | Temp. | Humidity | Pressure | Rain* | Wind** | Luminosity | Snow |
|---|---|---|---|---|---|---|---|
| 1777740852 | 21.67° C | 33% | 1019.2 hPa | 0 mm | - | - | - |
| 1777740553 | 22.22° C | 33% | 1019.1 hPa | 0 mm | - | - | - |
| 1777739953 | 22.78° C | 32% | 1019.2 hPa | 0 mm | - | - | - |
| 1777739653 | 23.33° C | 31% | 1019.5 hPa | 0 mm | - | - | - |
| 1777739353 | 23.89° C | 31% | 1019.5 hPa | 0 mm | - | - | - |
| 1777739053 | 25° C | 29% | 1019.5 hPa | 0 mm | - | - | - |
| 1777738753 | 26.11° C | 29% | 1019.6 hPa | 0 mm | - | - | - |
| 1777738453 | 26.11° C | 28% | 1019.7 hPa | 0 mm | - | - | - |
| 1777738153 | 26.11° C | 29% | 1019.7 hPa | 0 mm | - | - | - |
| 1777737854 | 26.11° C | 28% | 1019.8 hPa | 0 mm | - | - | - |
| 1777737553 | 26.11° C | 29% | 1019.8 hPa | 0 mm | - | - | - |
| 1777737253 | 26.11° C | 29% | 1019.9 hPa | 0 mm | - | - | - |
| 1777736953 | 26.11° C | 29% | 1019.9 hPa | 0 mm | - | - | - |
| 1777736654 | 26.11° C | 28% | 1020 hPa | 0 mm | - | - | - |
| 1777736054 | 25.56° C | 29% | 1020 hPa | 0 mm | - | - | - |
| 1777734853 | 25° C | 31% | 1020.2 hPa | 0 mm | - | - | - |
| 1777734553 | 24.44° C | 31% | 1020.3 hPa | 0 mm | - | - | - |
| 1777734253 | 23.89° C | 31% | 1020.4 hPa | 0 mm | - | - | - |
| 1777733953 | 23.89° C | 31% | 1020.5 hPa | 0 mm | - | - | - |
| 1777733653 | 23.33° C | 31% | 1020.4 hPa | 0 mm | - | - | - |
| 1777733353 | 23.33° C | 32% | 1020.5 hPa | 0 mm | - | - | - |
| 1777733053 | 23.33° C | 31% | 1020.5 hPa | 0 mm | - | - | - |
| 1777732753 | 23.33° C | 31% | 1020.5 hPa | 0 mm | - | - | - |
| 1777732453 | 23.89° C | 31% | 1020.6 hPa | 0 mm | - | - | - |
| 1777732153 | 23.89° C | 31% | 1020.6 hPa | 0 mm | - | - | - |
* Rain latest hour (hover to see other rain measurements)
** Current wind speed in m/s (hover to see current wind gust speed)